Simultaneous Nadir Overpasses (SNOs) Predictions

Prediction of SNOs between NOAA-19 and METOP-C Satellite Orbit:

Table of predicted SNOs for the next 14.0 days since TLE Epoch: 1/29/2022
Index Date (NOAA-19) Time (NOAA-19) Lat,Lon (NOAA-19) SZA (NOAA-19 ) Date (METOP-C) Time (METOP-C) Lat,Lon (METOP-C) SZA (METOP-C ) Distance(km) Time Diff (sec)
1 02/06/2022 05:15:25 -80.75, -46.87 82.60 02/06/2022 05:16:38 -80.76, -46.94 82.58 1.36 73
2 02/06/2022 06:06:30 80.75, 120.43 97.40 02/06/2022 06:07:18 80.75, 120.34 97.41 1.73 48
3 02/06/2022 06:57:25 -80.75, -72.33 82.62 02/06/2022 06:58:00 -80.75, -72.42 82.62 1.50 35
4 02/06/2022 07:48:30 80.75, 94.97 97.38 02/06/2022 07:48:40 80.74, 94.85 97.37 2.09 10
5 02/06/2022 08:39:25 -80.75, -97.80 82.64 02/06/2022 08:39:22 -80.74, -97.90 82.66 2.09 3
6 02/06/2022 09:30:30 80.74, 69.51 97.36 02/06/2022 09:30:02 80.74, 69.37 97.33 2.76 28
7 02/06/2022 10:21:25 -80.75,-123.26 82.66 02/06/2022 10:20:44 -80.73,-123.38 82.70 2.86 41



Historial Predications of SNOs between NOAA-19 and METOP-C
